Location: ??????
(42.0089°N, 44.3281°E)
Time: 17:34:27
(UTC+00:00)

USA 267 - Pass Details

Date: 01 June 2022
Orbit: 1101 x 1106 km, 123.0° (Epoch: 28 June)

Event Time Altitude Azimuth Distance (km) Brightness Sun altitude
Exits shadow 23:16:47 12° 164° (SSE) 2,788 5.0 -18.5°
Maximum altitude 23:22:24 41° 231° (SW) 1,540 3.6 -18.0°
Drops below altitude 10° 23:28:31 10° 300° (WNW) 2,962 5.5 -17.3°
Sets 23:31:11 0° 307° (NW) 3,923 6.2 -17.0°
